This demonstration page uses our WeatherBlox Daily Observations layout. Learn more.

Left ArrowRight Arrow

Hourly Observations for July 10, 2022

Temp ( °F °C ) Dew Point ( °F °C ) Humidity (%) Winds ( mph kmh ) Pressure ( in mb ) Visibility ( mi km ) Precip ( " mm )
12:53 am 00:53 Mostly Cloudy 91 32.8 67 19.4 45 45 NE 6 9 29.96 1015 10 16 0.00 0.00
1:53 am 01:53 Partly Cloudy 89 31.7 66 18.9 47 47 NNE 10 17 29.96 1014 10 16 0.00 0.00
2:53 am 02:53 Mostly Clear 88 31.1 68 20 52 52 NE 8 13 29.95 1014 10 16 0.00 0.00
3:53 am 03:53 Mostly Clear 87 30.6 68 20 53 53 ENE 6 9 29.94 1014 10 16 0.00 0.00
4:53 am 04:53 Mostly Clear 86 30 69 20.6 57 57 ENE 3 6 29.95 1014 10 16 0.00 0.00
5:53 am 05:53 Mostly Clear 84 28.9 69 20.6 61 61 NNE 5 7 29.95 1014 10 16 0.00 0.00
6:53 am 06:53 Sunny 82 27.8 69 20.6 65 65 N 5 7 29.96 1015 10 16 0.00 0.00
7:53 am 07:53 Sunny 86 30 70 21.1 59 59 NNE 6 9 29.97 1015 10 16 0.00 0.00
8:53 am 08:53 Sunny 88 31.1 69 20.6 54 54 VRB 5 7 29.98 1015 10 16 0.00 0.00
9:53 am 09:53 Sunny 89 31.7 70 21.1 53 53 ENE 8 13 29.98 1015 10 16 0.00 0.00
10:53 am 10:53 Sunny 93 33.9 70 21.1 47 47 VRB 3 6 29.98 1015 10 16 0.00 0.00
11:53 am 11:53 Mostly Sunny 95 35 68 20 41 41 NE 12 19 29.97 1015 10 16 0.00 0.00
12:53 pm 12:53 Mostly Sunny 97 36.1 67 19.4 37 37 NE 8 13 29.95 1014 10 16 0.00 0.00
1:53 pm 13:53 Mostly Sunny 99 37.2 66 18.9 34 34 VRB 5 7 29.93 1013 10 16 0.00 0.00
2:53 pm 14:53 Mostly Sunny 100 37.8 66 18.9 33 33 undefined N/A 29.90 1013 10 16 0.00 0.00
3:53 pm 15:53 Mostly Sunny 102 38.9 64 17.8 29 29 VRB 6 9 29.88 1012 10 16 0.00 0.00
4:53 pm 16:53 Mostly Sunny 102 38.9 63 17.2 28 28 NE 10 17 29.86 1011 10 16 0.00 0.00
5:53 pm 17:53 Mostly Sunny 101 38.3 65 18.3 31 31 undefined N/A 29.84 1010 10 16 0.00 0.00
6:53 pm 18:53 Mostly Sunny 99 37.2 65 18.3 33 33 ESE 8 13 29.82 1010 10 16 0.00 0.00
7:53 pm 19:53 Mostly Sunny 98 36.7 65 18.3 34 34 NE 6 9 29.81 1010 10 16 0.00 0.00
8:53 pm 20:53 Mostly Clear 95 35 67 19.4 40 40 ENE 6 9 29.82 1010 10 16 0.00 0.00
9:53 pm 21:53 Clear 94 34.4 67 19.4 41 41 ENE 6 9 29.85 1011 10 16 0.00 0.00
10:53 pm 22:53 Clear 93 33.9 67 19.4 42 42 E 6 9 29.87 1012 10 16 0.00 0.00
11:53 pm 23:53 Clear 91 32.8 70 21.1 50 50 E 8 13 29.88 1012 10 16 0.00 0.00

Powered by AerisWeather